Location: Unspecified
(58.9933°N, 5.6375°E)
Time: 23:25:13
(UTC+02:00)

Cosmos 2058 - Visible Passes

Search period start: 24 April 2014 00:00
Search period end: 04 May 2014 00:00
Orbit: 572 x 595 km, 82.5° (Epoch: 23 April)

Date Brightness Start Highest point End Pass type
(mag) Time Alt. Az. Time Alt. Az. Time Alt. Az.
24 Apr 5.8 04:52:26 10° SE 04:55:18 18° E 04:58:10 10° NE visible
25 Apr 5.5 04:58:00 10° SE 05:01:18 22° E 05:04:38 10° NE visible
26 Apr 5.1 05:03:42 10° SSE 05:07:20 28° E 05:10:59 10° NNE visible
29 Apr 6.0 03:48:10 10° E 03:49:17 11° ENE 03:50:24 10° ENE visible
30 Apr 5.8 03:53:00 10° ESE 03:55:12 14° E 03:57:24 10° NE visible
01 May 5.6 03:58:18 10° SE 04:01:08 18° E 04:03:58 10° NE visible
02 May 5.3 04:03:49 10° SE 04:07:06 22° E 04:10:23 10° NE visible
03 May 4.9 04:09:27 10° SSE 04:13:04 28° E 04:16:41 10° NNE visible
